Location: Possagno
(45.8500°N, 11.8667°E)
Time: 19:39:16
(UTC+00:00)

GP-B - Pass Details

Date: 07 June 2020
Orbit: 631 x 635 km, 89.8° (Epoch: 11 July)

Event Time Altitude Azimuth Distance (km) Brightness Sun altitude
Rises 00:34:30 0° 2° (N) 2,943 7.9 -18.8°
Reaches altitude 10° 00:36:44 10° 3° (N) 2,029 6.8 -18.7°
Maximum altitude 00:41:13 85° 91° (E) 643 3.1 -18.4°
Enters shadow 00:43:00 36° 178° (S) 1,002 3.6 -18.3°
